Location: Tel Aviv
(32.0670°N, 34.7670°E)
Time: 12:42:04
(UTC+02:00)

X-37B - Visible Passes

Search period start: 01 December 2021 00:00
Search period end: 11 December 2021 00:00
Orbit: 330 x 341 km, 45.0° (Epoch: 20 November)

Date Brightness Start Highest point End Pass type
(mag) Time Alt. Az. Time Alt. Az. Time Alt. Az.
03 Dec 1.4 17:56:43 10° SSW 17:59:06 32° SSE 17:59:06 32° SSE visible
04 Dec 1.6 18:16:53 10° WSW 18:18:58 41° W 18:18:58 41° W visible
05 Dec 1.4 17:02:10 10° SSW 17:04:46 32° SE 17:07:23 10° ENE visible
05 Dec 3.4 18:37:59 10° W 18:38:46 15° WNW 18:38:46 15° WNW visible
06 Dec 0.6 17:22:18 10° WSW 17:25:08 62° NNW 17:27:15 16° NE visible
07 Dec 2.3 17:43:23 10° W 17:45:42 22° NNW 17:46:54 17° N visible
08 Dec 3.1 18:05:26 10° NW 18:06:28 11° NNW 18:06:31 11° NNW visible
10 Dec 3.0 17:10:50 10° NW 17:11:53 11° NNW 17:12:58 10° N visible
